EEST,Max TemperatureF,Mean TemperatureF,Min TemperatureF,Max Dew PointF,MeanDew PointF,Min DewpointF,Max Humidity, Mean Humidity, Min Humidity, Max Sea Level PressureIn, Mean Sea Level PressureIn, Min Sea Level PressureIn, Max VisibilityMiles, Mean VisibilityMiles, Min VisibilityMiles, Max Wind SpeedMPH, Mean Wind SpeedMPH, Max Gust SpeedMPH,PrecipitationIn, CloudCover, Events, WindDirDegrees
2013-7-1,103,84,65,46,40,30,43,21,4,29.68,29.62,29.44,12,9,6,17,8,,0.00,,,254
2013-7-2,95,82,68,50,41,36,44,23,7,29.65,29.60,29.45,12,8,6,24,11,,0.00,1,,302
2013-7-3,96,83,70,46,42,37,41,23,8,29.68,29.63,29.48,12,7,6,20,14,,0.00,1,,312
2013-7-4,100,88,75,46,41,36,36,21,6,29.71,29.64,29.48,12,12,12,14,9,20,0.00,,,315
2013-7-5,101,87,73,43,36,28,31,17,4,29.71,29.65,29.47,12,9,6,16,10,18,0.00,,,312
2013-7-6,102,84,65,39,32,23,31,14,4,29.71,29.67,29.49,12,10,6,14,9,16,0.00,,,308
2013-7-7,104,87,70,39,33,28,27,14,4,29.80,29.75,29.56,12,10,6,12,8,,0.00,,,300
2013-7-8,104,88,71,36,30,21,25,13,4,29.83,29.77,29.57,12,12,12,16,7,,0.00,,,310
2013-7-9,105,91,77,45,39,32,26,15,5,29.74,29.62,29.37,12,10,6,20,13,23,0.00,,,316
2013-7-10,105,92,78,50,44,36,28,18,6,29.56,29.50,29.28,12,8,6,15,10,,0.00,1,,325
2013-7-11,107,94,80,50,45,39,30,18,5,29.53,29.45,29.25,12,8,6,17,12,,0.00,1,,312
2013-7-12,102,90,79,50,42,28,29,18,5,29.65,29.57,29.36,12,12,12,18,13,,0.00,,,306
2013-7-13,104,90,77,48,39,30,24,16,5,29.68,29.60,29.41,12,9,6,27,13,,0.00,,,322
2013-7-14,105,90,75,46,37,28,26,14,5,29.65,29.59,29.39,12,9,6,31,13,21,0.00,1,,310
2013-7-15,103,90,78,48,41,36,24,16,5,29.68,29.61,29.42,12,10,6,38,13,,0.00,,,306
2013-7-16,106,90,74,43,36,28,25,14,4,29.71,29.63,29.43,12,12,12,18,7,,0.00,,,237
2013-7-17,102,86,69,50,43,36,38,22,6,29.71,29.64,29.46,12,9,6,18,7,28,0.00,,,143
2013-7-18,99,84,69,59,47,34,53,27,6,29.71,29.65,29.48,12,7,6,15,6,18,0.00,1,,138
2013-7-19,97,84,71,59,49,41,53,30,8,29.68,29.64,29.47,12,7,6,17,6,,0.00,1,,24
2013-7-20,99,86,73,48,42,34,41,22,6,29.68,29.62,29.44,12,12,12,14,10,,0.00,,,318
2013-7-21,102,90,77,45,41,36,24,17,6,29.59,29.52,29.33,12,9,6,15,10,18,0.00,,,326
2013-7-22,103,90,77,50,45,39,36,21,6,29.56,29.49,29.30,12,8,6,18,11,,0.00,1,,267
2013-7-23,102,89,76,52,43,36,36,20,5,29.62,29.54,29.34,12,10,6,16,9,,0.00,,,223
2013-7-24,101,87,73,50,43,39,38,21,6,29.68,29.63,29.47,12,12,12,13,7,,0.00,,,332
2013-7-25,100,88,77,46,41,30,30,18,7,29.65,29.59,29.39,12,8,6,18,12,21,0.00,,,312
2013-7-26,99,86,73,43,36,28,29,17,5,29.59,29.53,29.35,12,12,12,26,18,28,0.00,,,307
2013-7-27,98,84,71,43,38,34,31,18,6,29.50,29.46,29.28,12,12,12,18,12,,0.00,,,299
2013-7-28,94,84,73,46,44,36,36,24,7,29.74,29.60,29.38,12,12,12,18,15,26,0.00,,,307
2013-7-29,94,82,70,45,38,30,36,21,7,29.77,29.72,29.56,12,9,6,23,14,23,0.00,,,321
2013-7-30,94,80,67,41,32,19,33,18,4,29.71,29.65,29.47,12,12,12,20,14,32,0.00,,,318
2013-7-31,96,80,64,37,29,18,32,15,4,29.65,29.58,29.41,12,10,6,16,11,,0.00,,,311